Litchfield, MN

3:54 AM CDT on August 25, 2016 (GMT -0500)
Litchfield Municipal

Weather History for KLJF - January, 2012

Change the Weather History Date:

Friday, January 27, 2012

  Actual Average Record
Temperature  
Mean Temperature 26 °F -  
Max Temperature 33 °F 20 °F 47 °F (1989)
Min Temperature 19 °F 0 °F -22 °F (1955)
Degree Days  
Heating Degree Days 39    
Moisture  
Dew Point 24 °F    
Average Humidity 87    
Maximum Humidity 100    
Minimum Humidity 69    
Precipitation  
Precipitation 0.06 in - - ()
Sea Level Pressure  
Sea Level Pressure 29.76 in    
Wind  
Wind Speed 7 mph (WSW)    
Max Wind Speed 23 mph    
Max Gust Speed 39 mph    
Visibility 8 miles    
Events Rain , Snow    
Averages and records for this station are not official NWS values.
T = Trace of Precipitation, MM = Missing Value Source: NWS Daily Summary

Daily Weather History Graph

Daily Weather History Graph

Search for Another Location

Airport or City:

Trip Planner

Search our weather history database for the weather conditions in past years. The results will help you decide how hot, cold, wet, or windy it might be!

Date:

Astronomy

Jan. 27, 2012 Rise Set
Actual Time 7:43 AM CST 5:17 PM CST
Civil Twilight 7:12 AM CST 5:49 PM CST
Nautical Twilight 6:36 AM CST 6:25 PM CST
Astronomical Twilight 6:01 AM CST 7:00 PM CST
Moon 9:23 AM CST (1/27) 10:26 PM CST (1/27)
Length of Visible Light 10h 37m
Length of Day
9h 34m
Waxing Crescent, 20% of the Moon is Illuminated
Jan 27
Waxing Crescent
Jan 30
First Quarter
Feb 7
Full
Feb 14
Last Quarter
Feb 21
New

Hourly Weather History & Observations

Time (CST) Temp. Windchill Dew Point Humidity Pressure Visibility Wind Dir Wind Speed Gust Speed Precip Events Conditions
12:13 AM 23.0 °F 15.8 °F 19.4 °F 86% 29.80 in 10.0 mi WNW 5.8 mph - N/A   Clear
12:33 AM 23.0 °F 14.7 °F 19.4 °F 86% 29.81 in 10.0 mi West 6.9 mph - N/A   Clear
12:53 AM 23.0 °F 15.8 °F 19.4 °F 86% 29.80 in 10.0 mi West 5.8 mph - N/A   Clear
1:13 AM 24.8 °F 19.1 °F 19.4 °F 80% 29.80 in 10.0 mi West 4.6 mph - N/A   Clear
1:33 AM 24.8 °F 19.1 °F 19.4 °F 80% 29.80 in 10.0 mi West 4.6 mph - N/A   Clear
1:53 AM 23.0 °F 17.0 °F 19.4 °F 86% 29.79 in 10.0 mi West 4.6 mph - N/A   Clear
2:13 AM 23.0 °F 18.4 °F 19.4 °F 86% 29.80 in 10.0 mi West 3.5 mph - N/A   Clear
2:33 AM 24.8 °F 20.5 °F 19.4 °F 80% 29.80 in 10.0 mi WSW 3.5 mph - N/A   Clear
2:53 AM 23.0 °F 15.8 °F 19.4 °F 86% 29.80 in 10.0 mi WSW 5.8 mph - N/A   Clear
3:13 AM 23.0 °F 17.0 °F 19.4 °F 86% 29.79 in 10.0 mi WSW 4.6 mph - N/A   Clear
3:33 AM 21.2 °F 16.4 °F 19.4 °F 93% 29.79 in 10.0 mi SW 3.5 mph - N/A   Scattered Clouds
3:53 AM 21.2 °F 16.4 °F 19.4 °F 93% 29.78 in 10.0 mi SSW 3.5 mph - N/A   Scattered Clouds
4:13 AM 19.4 °F 12.8 °F 17.6 °F 93% 29.78 in 10.0 mi SW 4.6 mph - N/A   Scattered Clouds
4:33 AM 19.4 °F 14.3 °F 17.6 °F 93% 29.78 in 10.0 mi SSW 3.5 mph - N/A   Clear
4:53 AM 19.4 °F - 17.6 °F 93% 29.78 in 10.0 mi Calm Calm - N/A   Scattered Clouds
5:13 AM 19.4 °F - 17.6 °F 93% 29.77 in 10.0 mi Calm Calm - N/A   Mostly Cloudy
5:33 AM 21.2 °F - 19.4 °F 93% 29.76 in 10.0 mi Calm Calm - N/A   Mostly Cloudy
5:53 AM 21.2 °F - 19.4 °F 93% 29.77 in 10.0 mi Calm Calm - N/A   Scattered Clouds
6:33 AM 23.0 °F 17.0 °F 19.4 °F 86% 29.76 in 10.0 mi South 4.6 mph - N/A   Mostly Cloudy
6:54 AM 24.8 °F - 19.4 °F 80% 29.76 in 10.0 mi Calm Calm - N/A   Scattered Clouds
7:13 AM 24.8 °F 20.5 °F 17.6 °F 74% 29.75 in 10.0 mi South 3.5 mph - N/A   Scattered Clouds
7:33 AM 24.8 °F 20.5 °F 17.6 °F 74% 29.76 in 10.0 mi South 3.5 mph - N/A   Scattered Clouds
7:53 AM 24.8 °F 20.5 °F 17.6 °F 74% 29.75 in 10.0 mi South 3.5 mph - N/A   Mostly Cloudy
8:13 AM 24.8 °F 20.5 °F 17.6 °F 74% 29.74 in 10.0 mi SSE 3.5 mph - N/A   Mostly Cloudy
8:33 AM 26.6 °F 21.2 °F 17.6 °F 69% 29.74 in 10.0 mi South 4.6 mph - N/A   Mostly Cloudy
8:53 AM 28.4 °F 20.4 °F 19.4 °F 69% 29.74 in 10.0 mi SSW 8.1 mph - N/A   Overcast
9:13 AM 28.4 °F 24.6 °F 21.2 °F 74% 29.74 in 10.0 mi South 3.5 mph - N/A   Overcast
9:34 AM 28.4 °F 24.6 °F 21.2 °F 74% 29.73 in 7.0 mi SSW 3.5 mph - N/A Snow Light Snow
9:53 AM 28.4 °F 22.2 °F 24.8 °F 86% 29.73 in 10.0 mi SSW 5.8 mph - N/A   Overcast
10:13 AM 30.2 °F 23.4 °F 24.8 °F 80% 29.73 in 10.0 mi SSW 6.9 mph - N/A   Overcast
10:32 AM 30.2 °F 21.9 °F 28.4 °F 93% 29.74 in 1.8 mi SSW 9.2 mph 18.4 mph N/A Snow Light Snow
10:53 AM 30.2 °F 22.6 °F 30.2 °F 100% 29.73 in 0.2 mi SSW 8.1 mph - N/A Snow Snow
11:13 AM 30.2 °F 24.3 °F 30.2 °F 100% 29.73 in 1.0 mi SSW 5.8 mph - 0.03 in Snow Light Snow
11:33 AM 32.0 °F 24.8 °F 30.2 °F 93% 29.72 in 2.5 mi SSW 8.1 mph 19.6 mph 0.03 in Snow Light Snow
11:45 AM 30.2 °F 21.9 °F 30.2 °F 100% 29.71 in 0.5 mi SSW 9.2 mph 18.4 mph 0.04 in Snow Light Snow
11:53 AM 30.2 °F 22.6 °F 30.2 °F 100% 29.71 in 0.2 mi SSW 8.1 mph - 0.01 in Snow Snow
12:13 PM 32.0 °F 24.8 °F 32.0 °F 100% 29.70 in 1.2 mi SSW 8.1 mph 18.4 mph 0.02 in   Overcast
12:33 PM 32.0 °F 23.6 °F 32.0 °F 100% 29.70 in 2.5 mi SSW 10.4 mph 16.1 mph 0.02 in Rain Light Rain
12:45 PM 33.8 °F 26.4 °F 33.8 °F 100% 29.70 in 2.5 mi SW 9.2 mph 18.4 mph 0.02 in   Overcast
12:53 PM 33.8 °F 25.8 °F 33.8 °F 100% 29.70 in 2.5 mi WSW 10.4 mph - N/A   Overcast
1:13 PM 33.8 °F 26.4 °F 33.8 °F 100% 29.69 in 4.0 mi WSW 9.2 mph 16.1 mph N/A   Overcast
1:33 PM 33.8 °F 26.4 °F 33.8 °F 100% 29.69 in 10.0 mi WSW 9.2 mph 17.3 mph N/A   Overcast
1:53 PM 33.8 °F 24.8 °F 33.8 °F 100% 29.69 in 10.0 mi West 12.7 mph 20.7 mph N/A   Overcast
2:13 PM 33.8 °F 23.9 °F 32.0 °F 93% 29.70 in 10.0 mi WNW 15.0 mph 20.7 mph N/A   Overcast
2:33 PM 32.0 °F 19.2 °F 30.2 °F 93% 29.71 in 10.0 mi WNW 23.0 mph 27.6 mph N/A   Overcast
2:53 PM 32.0 °F 20.1 °F 28.4 °F 87% 29.72 in 10.0 mi WNW 19.6 mph 26.5 mph N/A   Overcast
3:13 PM 32.0 °F 20.5 °F 28.4 °F 87% 29.73 in 10.0 mi WNW 18.4 mph 32.2 mph N/A   Overcast
3:33 PM 33.8 °F 22.5 °F 26.6 °F 75% 29.75 in 10.0 mi NW 19.6 mph 29.9 mph N/A   Overcast
3:53 PM 33.8 °F 21.9 °F 26.6 °F 75% 29.77 in 10.0 mi NW 21.9 mph 31.1 mph N/A   Overcast
4:13 PM 32.0 °F 19.2 °F 26.6 °F 80% 29.78 in 10.0 mi NW 23.0 mph 39.1 mph N/A   Overcast
4:33 PM 30.2 °F 17.4 °F 26.6 °F 86% 29.80 in 10.0 mi NW 20.7 mph 28.8 mph N/A   Mostly Cloudy
4:53 PM 30.2 °F 18.9 °F 24.8 °F 80% 29.83 in 10.0 mi NW 16.1 mph 25.3 mph N/A   Overcast
5:13 PM 28.4 °F 15.8 °F 23.0 °F 80% 29.84 in 10.0 mi NW 18.4 mph 31.1 mph N/A   Scattered Clouds
5:33 PM 26.6 °F 13.1 °F 23.0 °F 86% 29.86 in 10.0 mi WNW 19.6 mph 24.2 mph N/A   Clear
5:53 PM 26.6 °F 15.2 °F 21.2 °F 80% 29.88 in 10.0 mi WNW 13.8 mph 23.0 mph N/A   Clear
6:13 PM 26.6 °F 14.7 °F 19.4 °F 74% 29.89 in 10.0 mi WNW 15.0 mph 24.2 mph N/A   Clear
6:33 PM 24.8 °F 13.4 °F 19.4 °F 80% 29.90 in 10.0 mi WNW 12.7 mph 23.0 mph N/A   Clear
6:53 PM 24.8 °F 15.3 °F 19.4 °F 80% 29.91 in 10.0 mi WNW 9.2 mph - N/A   Clear
7:14 PM 24.8 °F 13.4 °F 19.4 °F 80% 29.92 in 10.0 mi WNW 12.7 mph 17.3 mph N/A   Clear
7:33 PM 24.8 °F 13.4 °F 19.4 °F 80% 29.92 in 10.0 mi WNW 12.7 mph - N/A   Clear
7:53 PM 24.8 °F 13.4 °F 17.6 °F 74% 29.92 in 10.0 mi WNW 12.7 mph 18.4 mph N/A   Clear
8:13 PM 23.0 °F 11.7 °F 17.6 °F 80% 29.92 in 10.0 mi WNW 11.5 mph 18.4 mph N/A   Clear
8:33 PM 21.2 °F 10.9 °F 17.6 °F 86% 29.93 in 10.0 mi WNW 9.2 mph - N/A   Clear
8:53 PM 21.2 °F 13.6 °F 15.8 °F 80% 29.94 in 10.0 mi West 5.8 mph - N/A   Clear
9:13 PM 21.2 °F 11.7 °F 15.8 °F 80% 29.94 in 10.0 mi West 8.1 mph - N/A   Clear
9:33 PM 21.2 °F 12.6 °F 17.6 °F 86% 29.93 in 10.0 mi West 6.9 mph - N/A   Clear
9:53 PM 21.2 °F 11.7 °F 17.6 °F 86% 29.94 in 10.0 mi West 8.1 mph - N/A   Clear
10:13 PM 23.0 °F 12.4 °F 17.6 °F 80% 29.94 in 10.0 mi WNW 10.4 mph - N/A   Clear
10:33 PM 23.0 °F 11.1 °F 17.6 °F 80% 29.94 in 10.0 mi WNW 12.7 mph - N/A   Clear
10:53 PM 23.0 °F 12.4 °F 17.6 °F 80% 29.94 in 10.0 mi WNW 10.4 mph - N/A   Clear
11:13 PM 21.2 °F 13.6 °F 17.6 °F 86% 29.94 in 10.0 mi West 5.8 mph 9.2 mph N/A   Clear
11:33 PM 21.2 °F 13.6 °F 15.8 °F 80% 29.94 in 10.0 mi West 5.8 mph - N/A   Clear
11:53 PM 19.4 °F 11.5 °F 15.8 °F 86% 29.93 in 10.0 mi West 5.8 mph - N/A   Clear